SCOUT A DEB, 2644

Orbit data source: Space-Track

SCOUT A DEB, 2644 is space debris in LEO originally from a launch on Thu, 19 May 1966 UTC launched from the Air Force Western Test Range (AFWTR). Debris objects in space refer to the collection of defunct objects orbiting the Earth. Examples of debris include non-operational satellites, rocket bodies, and fragments generated from explosions, collisions, or faulty payload assembly.

Loading next visibility...
Identifier
2644, 1966-041D
Orbit
LEO
Country
Flag of USUS
Related business
Manufacturer
Unknown
Mission
Spacecraft
Bus & Motor
Unknown
Mass
Unknown
Launch date (UTC)
1966-05-19 (60 years ago)
Launch vehicle
Unknown
Launch site
Air Force Western Test Range (AFWTR)
Object type
Payload
Rocket body
Debris
Shape & HBR
Unknown shape, 0.1 m
Radar Cross Section
Small (<0.1 m²)

Expand to show TLE details & history
Last TLE update: 3 days ago

TLE from 3 days ago
0 SCOUT A DEB
1 02644U 66041D   26098.08411698  .00000267  00000-0  22194-3 0  9991
2 02644  90.1682  44.0683 0210810 219.3081 139.2623 13.77178364989048
Epoch: 2026-04-08T02:01Z
TLE epoch observation values (Epoch: 2026-04-08T02:01:07.707Z)
Latitude
0.00008°
Longitude
177.43462°
Altitude
1,095.723 km
Speed
7.245 km/s
True Right ascension
02h 56m 16s
True Declination
0° 00' 00"
Sunlit
Object was in daylight at epoch
Visualization orbit readout
Latitude
Unknown
Longitude
Unknown
Altitude
Unknown
Speed
Unknown
Apparent Right ascension
Unknown
Apparent Declination
Unknown
Sunlit
N/A
Visualization observer readout
Local Sidereal Time
18:15:23
Azimuth
Unknown
Elevation
Unknown
Doppler factor
Unknown
Orbital elements
Apogee altitude
1,125.846 km
Perigee altitude
815.995 km
Semi-major axis
7,349.057 km
Eccentricity
0.02108
Inclination
90.1682°
RAAN
44.0683°
Arg. of periapsis
219.3081°
True anomaly
140.80771°
Mean anomaly
139.2623°
Eccentric anomaly
140.03808°
Mean motion
3.44505 °/min
Orbital period
104.5 mins
BSTAR
0.00022194
Loading maneuver chart data...
Computing Atmospheric mass density...
Loading historical data...
Loading historical data...
Loading historical data...
Loading historical data...
Loading historical data...
Loading historical data...
Loading historical data...

Documentation

Showing up to 5 results
|